Home   Weather   Muktsar   Past weeks

Flag for India Past Weather in Muktsar, Punjab, India — Yesterday and Last 2 Weeks

86 °F


Feels Like: 85 °F
Forecast: 61 / 88 °F
Wind: 7 mph from West

Location: Lahore Airport

Current Time: Oct 28, 2016 at 2:14:30 PM

Latest Report: Oct 28, 2016 at 1:25 PM

Visibility: 2 mi

Pressure: 29.89 "Hg

Humidity: 35%

Dew Point: 55 °F

Location of MuktsarLocation

Past Weather in Muktsar — Graph


Muktsar Temperature Yesterday

Maximum temperature yesterday: 90 °F (at 3:25 PM)
Minimum temperature yesterday: 64 °F (at 7:30 AM)
Average temperature yesterday: 78 °F

High & Low Weather Summary for the Past Weeks

High95 °F (Oct 13, 3:25 PM)88% (Oct 16, 6:25 AM)30.07 "Hg (Oct 16, 6:25 AM)
Low63 °F (Oct 28, 7:25 AM)20% (Oct 13, 3:25 PM)29.71 "Hg (Oct 20, 2:55 PM)
Average79 °F56%29.84 "Hg
* Reported Oct 13 12:55 PM — Oct 28 12:55 PM, Muktsar, Weather by CustomWeather, © 2016

Note: Actual official high and low records may vary slightly from our data, if they occured in-between our weather recording intervals... More about our weather records


Muktsar Weather History for the Previous 24 Hours

Scroll right to see more
Time TempWeatherWind HumidityBarometerVisibility
12:55 PM
Fri, Oct 28
84 °FHaze.7 mph40%29.92 "Hg2 mi
12:25 PM84 °FHaze.9 mph40%29.92 "Hg2 mi
11:25 AM81 °FClear.9 mph51%29.95 "Hg1 mi
10:55 AM77 °FClear.8 mph61%29.98 "Hg1 mi
10:25 AM75 °FClear.6 mph65%29.98 "Hg1 mi
9:55 AM72 °FClear.5 mph69%29.98 "Hg1 mi
9:25 AM70 °FClear.5 mph73%29.98 "Hg1 mi
8:55 AM66 °FFog.No wind78%29.95 "Hg1 mi
8:25 AM64 °FFog.No wind83%29.95 "Hg1 mi
7:55 AM63 °FFog.No wind83%29.95 "Hg1 mi
7:25 AM63 °FFog.No wind83%29.95 "Hg1 mi
5:25 AM66 °FClear.No wind83%29.92 "Hg2 mi
4:55 AM66 °FClear.3 mph83%29.92 "Hg2 mi
4:25 AM68 °FClear.3 mph78%29.92 "Hg2 mi
3:55 AM68 °FClear.3 mph78%29.95 "Hg2 mi
3:25 AM68 °FClear.No wind78%29.95 "Hg2 mi
2:55 AM70 °FClear.No wind69%29.95 "Hg2 mi
2:25 AM70 °FClear.3 mph69%29.95 "Hg2 mi
1:55 AM72 °FClear.No wind65%29.98 "Hg2 mi
1:25 AM72 °FClear.No wind65%29.98 "Hg2 mi
12:55 AM73 °FClear.No wind65%29.98 "Hg2 mi
12:25 AM73 °FPassing clouds.No wind65%29.98 "Hg2 mi
11:55 PM
Thu, Oct 27
75 °FPassing clouds.No wind61%29.98 "Hg2 mi
11:25 PM75 °FPassing clouds.No wind61%29.98 "Hg2 mi
10:55 PM75 °FPassing clouds.No wind61%29.98 "Hg2 mi
10:25 PM75 °FPassing clouds.No wind61%29.98 "Hg2 mi
9:25 PM77 °FPassing clouds.No wind57%29.98 "Hg2 mi
8:25 PM79 °FHaze.No wind51%29.98 "Hg2 mi
7:25 PM82 °FHaze.3 mph42%29.98 "Hg2 mi
6:25 PM86 °FHaze.3 mph38%29.95 "Hg2 mi
4:25 PM90 °FHaze.8 mph29%29.95 "Hg2 mi
3:55 PM90 °FHaze.9 mph29%29.95 "Hg2 mi
3:25 PM90 °FHaze.9 mph29%29.95 "Hg2 mi
2:55 PM88 °FHaze.10 mph35%29.98 "Hg2 mi
2:25 PM88 °FHaze.10 mph35%29.98 "Hg2 mi
Weather by CustomWeather, © 2016

See weather overviewHow to use our weather pages